Weather History for Biloxi, MS

Change the Weather History Date:

Wednesday, December 11, 2013

  Actual Average Record
Temperature  
Mean Temperature 48 °F -  
Max Temperature 59 °F 64 °F 75 °F (2007)
Min Temperature 36 °F 46 °F 28 °F (1950)
Degree Days  
Heating Degree Days 18    
Moisture  
Dew Point 37 °F    
Average Humidity 63    
Maximum Humidity 87    
Minimum Humidity 46    
Precipitation  
Precipitation 0.00 in - - ()
Sea Level Pressure  
Sea Level Pressure 30.36 in    
Wind  
Wind Speed 8 mph (NNE)    
Max Wind Speed 10 mph    
Max Gust Speed -    
Visibility 10 miles    
Events      
Averages and records for this station are not official NWS values.
T = Trace of Precipitation, MM = Missing Value Source: NWS Daily Summary

Daily Weather History Graph

Daily Weather History Graph

Search for Another Location

Airport:

Trip Planner

Search our weather history database for the weather conditions in past years. The results will help you decide how hot, cold, wet, or windy it might be!

Date:

Astronomy

Dec. 11, 2013 Rise Set
Actual Time 6:42 AM CST 4:55 PM CST
Civil Twilight 6:16 AM CST 5:22 PM CST
Nautical Twilight 5:46 AM CST 5:52 PM CST
Astronomical Twilight 5:16 AM CST 6:21 PM CST
Moon 1:12 PM CST (12/11) 1:22 AM CST (12/11)
Length of Visible Light 11h 06m
Length of Day
10h 13m
Waxing Gibbous, 72% of the Moon is Illuminated
Dec 11
Waxing Gibbous
Dec 17
Full
Dec 25
Last Quarter
Jan 1
New
Jan 7
First Quarter

Hourly Weather History & Observations

Time (CST) Temp. Windchill Dew Point Humidity Pressure Visibility Wind Dir Wind Speed Gust Speed Precip Events Conditions
12:58 AM 38.7 °F 31.8 °F 34.5 °F 85% 30.34 in 10.0 mi NE 10.4 mph - N/A   Clear
1:58 AM 37.9 °F 30.9 °F 33.6 °F 84% 30.33 in 10.0 mi NE 10.4 mph - N/A   Clear
3:58 AM 36.9 °F 30.1 °F 32.7 °F 85% 30.34 in 10.0 mi NE 9.2 mph - N/A   Scattered Clouds
4:58 AM 36.7 °F 29.9 °F 33.1 °F 87% 30.34 in 10.0 mi NE 9.2 mph - N/A   Overcast
6:58 AM 36.9 °F 32.2 °F 32.2 °F 83% 30.37 in 10.0 mi NNE 5.8 mph - N/A   Clear
7:58 AM 38.1 °F 32.3 °F 32.7 °F 81% 30.39 in 10.0 mi NNE 8.1 mph - N/A   Clear
8:58 AM 43.3 °F 37.7 °F 32.7 °F 66% 30.40 in 10.0 mi NE 10.4 mph - N/A   Clear
9:58 AM 48.2 °F - 31.8 °F 53% 30.41 in 10.0 mi NE 8.1 mph - N/A   Clear
10:58 AM 51.4 °F - 33.8 °F 51% 30.40 in 10.0 mi Variable 4.6 mph - N/A   Clear
11:58 AM 55.4 °F - 34.7 °F 46% 30.36 in 10.0 mi Variable 3.5 mph - N/A   Clear
12:58 PM 57.4 °F - 36.5 °F 46% 30.33 in 10.0 mi Calm Calm - N/A   Scattered Clouds
1:58 PM 58.8 °F - 38.1 °F 46% 30.33 in 10.0 mi North 3.5 mph - N/A   Overcast
2:58 PM 59.9 °F - 41.9 °F 51% 30.31 in 10.0 mi North 4.6 mph - N/A   Overcast
3:58 PM 58.5 °F - 42.3 °F 55% 30.33 in 10.0 mi North 8.1 mph - N/A   Overcast
4:58 PM 56.5 °F - 41.0 °F 56% 30.35 in 10.0 mi North 3.5 mph - N/A   Overcast
5:58 PM 55.6 °F - 42.1 °F 60% 30.35 in 10.0 mi NNW 3.5 mph - N/A   Overcast
6:58 PM 54.9 °F - 42.8 °F 64% 30.37 in 10.0 mi NNW 4.6 mph - N/A   Overcast
7:58 PM 54.7 °F - 41.9 °F 62% 30.37 in 10.0 mi North 3.5 mph - N/A   Overcast
8:58 PM 54.1 °F - 41.4 °F 62% 30.39 in 10.0 mi NNE 6.9 mph - N/A   Overcast
9:58 PM 54.0 °F - 40.1 °F 59% 30.40 in 10.0 mi NNE 6.9 mph - N/A   Overcast
10:58 PM 53.6 °F - 38.5 °F 57% 30.41 in 10.0 mi NNE 8.1 mph - N/A   Overcast
11:58 PM 52.7 °F - 37.2 °F 56% 30.41 in 10.0 mi NNE 10.4 mph - N/A   Overcast